Home   Weather   Waiblingen   Past weeks

Flag for Germany Past Weather in Waiblingen, Baden-Württemberg, Germany — Yesterday and Last 2 Weeks

Now
77 °F

Passing clouds.


Feels Like: 78 °F
Forecast: 55 / 81 °F
Wind: 9 mph from Northeast

Location: Stuttgart-Echterdingen

Current Time: Aug 30, 2016 at 3:14:29 PM

Latest Report: Aug 30, 2016 at 2:20 PM


Visibility: N/A

Pressure: 30.21 "Hg

Humidity: 44%

Dew Point: 54 °F

Location of WaiblingenLocation

Past Weather in Waiblingen — Graph

°F

Waiblingen Temperature Yesterday

Maximum temperature yesterday: 75 °F (at 12:20 PM)
Minimum temperature yesterday: 63 °F (at 11:50 PM)
Average temperature yesterday: 71 °F

High & Low Weather Summary for the Past Weeks

 TemperatureHumidityPressure
High91 °F (Aug 27, 2:50 PM)100% (Aug 19, 1:50 AM)30.42 "Hg (Aug 19, 1:50 AM)
Low54 °F (Aug 22, 1:50 AM)26% (Aug 27, 6:20 PM)29.83 "Hg (Aug 18, 5:20 AM)
Average70 °F66%30.09 "Hg
* Reported Aug 15 1:20 PM — Aug 30 1:50 PM, Waiblingen, Weather by CustomWeather, © 2016

Note: Actual official high and low records may vary slightly from our data, if they occured in-between our weather recording intervals... More about our weather records

Advertising

Waiblingen Weather History for the Previous 24 Hours

Scroll right to see more
 ConditionsComfort  
Time TempWeatherWind HumidityBarometerVisibility
1:50 PM
Tue, Aug 30
75 °FPassing clouds.6 mph54%30.24 "HgN/A
1:20 PM73 °FPassing clouds.7 mph53%30.24 "HgN/A
12:50 PM73 °FPassing clouds.7 mph57%30.24 "HgN/A
12:20 PM72 °FPassing clouds.6 mph57%30.24 "HgN/A
11:50 AM70 °FPassing clouds.9 mph64%30.27 "HgN/A
11:20 AM70 °FPassing clouds.8 mph64%30.27 "HgN/A
10:50 AM68 °FPassing clouds.5 mph69%30.27 "HgN/A
10:20 AM68 °FPassing clouds.6 mph69%30.27 "HgN/A
9:50 AM66 °FPassing clouds.5 mph73%30.24 "HgN/A
9:20 AM64 °FPassing clouds.7 mph73%30.24 "HgN/A
8:50 AM63 °FPassing clouds.3 mph77%30.24 "HgN/A
8:20 AM63 °FSunny.No wind83%30.24 "Hg10 mi
7:50 AM61 °FPassing clouds.No wind83%30.24 "HgN/A
7:20 AM59 °FPassing clouds.1 mph88%30.24 "HgN/A
6:50 AM59 °FPassing clouds.1 mph82%30.24 "HgN/A
6:20 AM59 °FPassing clouds.5 mph88%30.24 "HgN/A
5:50 AM59 °FPassing clouds.5 mph82%30.21 "HgN/A
5:20 AM59 °FClear.No wind88%30.21 "Hg10 mi
4:50 AM59 °FClear.2 mph88%30.21 "Hg10 mi
4:20 AM59 °FClear.1 mph82%30.21 "Hg10 mi
3:50 AM59 °FClear.1 mph82%30.21 "Hg10 mi
3:20 AM61 °FClear.1 mph83%30.21 "Hg10 mi
2:50 AM61 °FClear.3 mph83%30.21 "Hg10 mi
2:20 AM61 °FClear.5 mph83%30.21 "Hg10 mi
1:50 AM63 °FClear.2 mph77%30.21 "Hg10 mi
1:20 AM64 °FClear.1 mph73%30.21 "Hg10 mi
12:50 AM64 °FClear.7 mph73%30.21 "Hg10 mi
12:20 AM64 °FClear.8 mph73%30.21 "Hg10 mi
11:50 PM
Mon, Aug 29
63 °FClear.3 mph68%30.21 "Hg10 mi
11:20 PM64 °FClear.6 mph64%30.18 "Hg10 mi
10:50 PM66 °FClear.6 mph56%30.18 "Hg10 mi
10:20 PM66 °FClear.6 mph56%30.18 "Hg10 mi
9:50 PM66 °FClear.7 mph52%30.18 "Hg10 mi
9:20 PM68 °FClear.8 mph49%30.18 "Hg10 mi
8:50 PM70 °FSunny.7 mph43%30.15 "Hg10 mi
8:20 PM70 °FSunny.8 mph43%30.15 "Hg10 mi
7:50 PM72 °FSunny.13 mph44%30.12 "Hg10 mi
7:20 PM73 °FSunny.15 mph41%30.12 "Hg10 mi
6:50 PM73 °FSunny.13 mph44%30.12 "Hg10 mi
6:20 PM75 °FPassing clouds.12 mph44%30.12 "HgN/A
5:50 PM75 °FPassing clouds.12 mph44%30.09 "HgN/A
5:20 PM75 °FPassing clouds.13 mph47%30.09 "HgN/A
4:50 PM75 °FSunny.10 mph44%30.09 "Hg10 mi
4:20 PM75 °FPassing clouds.9 mph47%30.09 "HgN/A
3:50 PM75 °FPassing clouds.12 mph47%30.09 "HgN/A
3:20 PM75 °FPassing clouds.6 mph50%30.09 "HgN/A
Weather by CustomWeather, © 2016

See weather overviewHow to use our weather pages